sat.trackr.live / text

‹ back to catalog

STARLINK-34893

NORAD 65752 · 2025-216U

PAYLOAD ACTIVE UNKNOWN

§ Identity

Operator
Country
US
Launch date
2025-09-25
Launch site
AFETR
Launch vehicle
Mass (kg)
RCS (m²)

Purposes: comms

External: N2YO · Heavens-Above · Gunter

§ Orbital elements

Epoch: 2026-05-24T06:30:34.998624Z

Period
94.11 min
Inclination
53.1612°
Eccentricity
0.0001236
Mean motion
15.30202368 rev/d
Perigee alt
474.4 km
Apogee alt
476.1 km
Semi-major
6,853.3 km
B*
3.5622e-4
RAAN
341.9550°
Arg perigee
81.9156°
Mean anomaly
278.1985°
Rev number
3,808

§ Raw data

STARLINK-348931 65752U 25216U   26144.27123841  .00010206  00000+0  35622-3 0  99952 65752  53.1612 341.9550 0001236  81.9156 278.1985 15.30202368 38083

JSON: /api/v1/satellites/65752 · /tle

For live sub-satellite position, see the globe view (requires WebGL).

§ Visibility from observer

Set your observer location to see the next 7 days of passes ≥ 10°. The values pass through the URL so the page stays shareable.

No JS? Fill the form by hand. The geolocation button needs JavaScript.